Orbital Elements at Epoch 2459200.5 (2020-Dec-17.0) TDB
Reference: JPL 19 (heliocentric ecliptic J2000)
Element | Value | Uncertainty (1-sigma) | Units |
e | .1853031481709603 | 3.2602e-08 | |
a | 2.390510116121227 | 9.6989e-09 | au |
q | 1.947541065869436 | 8.0423e-08 | au |
i | 5.008540555518754 | 3.7068e-06 | deg |
node | 85.7760896977189 | 4.8369e-05 | deg |
peri | 209.596762244965 | 4.9734e-05 | deg |
M | 359.5856285315772 | 1.2147e-05 | deg |
tp | 2459202.053894928633 (2020-Dec-18.55389493) | 4.5555e-05 | TDB |
period | 1350.001669846866 3.70 | 8.216e-06 2.249e-08 | d yr |
n | .2666663368207801 | 1.6229e-09 | deg/d |
Q | 2.833479166373018 | 1.1496e-08 | au |
|
| | Orbit Determination Parameters
Additional Information
|